#timestamp,LO_Frequency,Hit 
1503014415.8,286047001.6,N
1503014435.6,286047002.0,N
1503014455.5,286047003.6,N
1503014475.3,286047004.2,N
1503014495.1,286047001.3,N
1503014515.8,286047004.4,N
1503014535.7,286047005.8,N
1503014555.5,286047003.3,N
1503014575.3,286047001.9,N
1503014595.2,286047002.2,N
1503014615.9,286047004.3,N
1503014635.7,286047003.9,N
1503014655.6,286047002.2,N
1503014675.4,286047003.2,N
1503014695.2,286047004.1,N
1503014715.1,286047003.9,N
1503014716.0,286047003.9,N
1503014735.8,286047001.5,N
1503014755.6,286047002.8,N
1503014775.5,286047000.1,N
1503014795.3,286047000.9,N
1503014815.1,286047000.0,N
1503014835.9,286047002.4,N
1503014855.7,286047001.7,N
1503014875.5,286047001.3,N
1503014895.3,286047004.1,N
1503014915.2,286047005.3,P
1503014935.0,286047002.0,N
1503014935.9,286047002.0,N
1503014955.8,286047004.3,P
1503014975.6,286046998.2,N
1503014995.4,286046999.4,N
1503015015.3,286046999.1,N
1503015035.1,286046999.5,N
1503015036.0,286046999.5,N
1503015055.8,286046999.3,N
1503015075.7,286046997.1,N
1503015095.5,286046997.2,N
1503015115.3,286046999.2,N
1503015135.2,286046997.1,N
1503015155.9,286046999.2,N
1503015175.7,286046997.7,N
1503015195.5,286046996.1,N
1503015215.4,286046992.9,P
1503015235.2,286046994.4,N
1503015255.1,286046992.3,N
1503015256.0,286046992.3,N
1503015275.8,286046996.4,N
1503015295.6,286046993.5,N
1503015315.4,286046996.1,N
1503015335.3,286046994.1,N
1503015355.1,286046995.0,N
1503015375.8,286046997.5,N
1503015395.7,286046997.8,N
1503015415.5,286046995.0,N
1503015435.3,286046996.0,N
1503015455.2,286046994.7,N
1503015475.9,286046994.1,P
1503015495.7,286046996.9,P
1503015515.6,286047000.6,N
1503015535.4,286046999.9,N
1503015555.2,286047002.2,N
1503015575.1,286047004.5,N
1503015576.0,286047004.5,N
1503015595.8,286047007.5,N
1503015615.6,286047006.7,N
1503015635.5,286047007.0,N
1503015655.3,286047007.1,N
1503015675.1,286047004.5,N
1503015695.9,286047004.5,N
1503015715.7,286047005.0,N
1503015735.5,286047009.2,N
1503015755.4,286047009.2,N
1503015775.2,286047007.1,N
1503015795.0,286047004.5,N
1503015795.9,286047004.5,N
1503015815.7,286047007.2,N
1503015835.6,286047007.2,N
1503015855.4,286047005.8,N
1503015875.2,286047007.1,N
1503015895.1,286047008.6,N
1503015896.0,286047008.6,N
1503015915.8,286047008.8,N
1503015935.6,286047006.4,N
1503015955.5,286047010.3,N
1503015975.3,286047007.9,N
1503015995.1,286047009.1,N
1503016015.9,286047006.6,N
1503016035.7,286047008.0,N
1503016055.5,286047008.6,P
1503016075.4,286047004.3,P
1503016095.2,286047004.4,N
1503016115.0,286047001.8,N
1503016115.9,286047001.8,N
1503016135.8,286047003.9,N
1503016155.6,286047004.4,N
1503016175.4,286047002.6,N
1503016195.3,286047002.3,N
1503016215.1,286046999.7,N
1503016216.0,286046999.7,N
1503016235.1,286046997.5,N
1503016236.0,286046997.5,N
1503016255.8,286046993.7,N
1503016275.7,286046993.7,N
1503016295.5,286046996.2,N
1503016315.3,286046997.3,N
1503016335.2,286046997.7,N
1503016355.9,286046996.2,N
1503016375.7,286046997.3,N
1503016395.5,286046997.8,N
1503016415.4,286046994.9,N
1503016435.2,286046999.6,N
1503016455.0,286046996.9,N
1503016455.9,286046996.9,N
1503016475.8,286046999.2,N
1503016495.6,286046996.8,N
1503016515.4,286046995.6,N
1503016535.3,286046996.3,N
1503016555.1,286046995.2,N
1503016556.0,286046995.2,N
1503016575.8,286046995.4,N
1503016595.7,286046998.2,N
1503016615.5,286047001.2,N
1503016635.3,286046997.4,N
1503016655.2,286046996.5,N
1503016675.9,286046996.5,N
1503016695.7,286046996.9,N
1503016715.6,286046999.3,N
1503016735.4,286046996.6,N
1503016755.2,286046995.8,N
1503016775.1,286046995.1,P
1503016776.0,286046995.1,P
1503016795.8,286046999.1,N
1503016815.6,286046998.5,N
1503016835.5,286047002.7,N
1503016855.3,286047003.0,N
1503016875.1,286047005.1,N
1503016895.9,286047003.7,N
1503016915.7,286047003.1,N
1503016935.5,286047003.8,N
1503016955.4,286047003.1,N
1503016975.2,286047003.4,N
1503016995.0,286047005.2,N
1503016995.9,286047005.2,N
1503017015.8,286047004.8,N
1503017035.6,286047002.3,N
1503017055.4,286047006.0,N
1503017075.2,286047004.8,N
1503017095.1,286047007.2,N
1503017096.0,286047007.2,N
1503017115.8,286047006.8,N
1503017135.6,286047007.2,N
1503017155.5,286047006.0,N
1503017175.3,286047005.9,N
1503017195.1,286047004.4,N
1503017215.9,286047000.2,N
1503017235.7,286046999.9,N
1503017255.5,286047005.8,N
1503017275.4,286047004.8,N
1503017295.2,286047005.6,N
1503017315.0,286047004.4,N
1503017315.9,286047004.4,N
1503017335.8,286047003.6,N
1503017355.6,286047003.9,N
1503017375.4,286047002.1,N
1503017395.3,286047003.5,N
1503017415.1,286047003.7,N
1503017416.0,286047003.7,N
1503017435.8,286047004.3,N
1503017455.6,286047005.2,N
1503017475.5,286047008.8,P
1503017495.3,286047003.8,N
1503017515.2,286047001.3,N
1503017535.9,286047002.4,N
1503017555.7,286047002.3,N
1503017575.6,286046998.5,N
1503017595.4,286046999.1,N
1503017615.2,286047001.0,N
1503017635.0,286047002.4,N
1503017635.9,286047002.4,N
1503017655.8,286047001.4,N
1503017675.6,286047004.2,N
1503017695.4,286047002.0,N
1503017715.3,286046999.7,N
1503017735.1,286047003.7,N
1503017755.8,286047005.1,N
1503017775.7,286047005.2,N
1503017795.5,286047002.2,N
1503017815.3,286047000.1,N
1503017835.2,286047002.7,N
1503017855.9,286047002.5,N
1503017875.7,286047002.8,N
1503017895.5,286047002.4,N
1503017915.4,286047001.8,N
1503017935.2,286047003.9,N
1503017955.0,286047002.4,N
1503017955.9,286047002.4,N
1503017975.8,286047001.3,N
1503017995.6,286047005.9,N
